[[{"header":{"parameterUnit":"m.s-1","parameterCategory":1,"la1":30.2991,"la2":30.254,"lo1":-89.0895,"lo2":-89.0444,"dy":0.0017,"dx":0.0017,"nx":28,"ny":28,"refTime":"2023-10-24T21:00:00:Z","depth":0,"parameterNumber":2,"parameterNumberName":"U-component_of_WINDS"},"data":[0,0,0,0,0,0,0,0,0,0,0,0,0,0,0,0,0,0,0,0,0,0,0,0,0,0,0,0,0,0,0,0,0,0,0,0,0,0,0,0,0,0,0,0,0,0,0,0,0,0,0,0,0,0,0,0,0,0,-3.5637,-3.5639,0,-3.5813,-3.5815,-3.5817,-3.5827,-3.5825,-3.5823,-3.5822,-3.6007,-3.6014,-3.602,0,0,0,0,0,0,0,0,0,0,0,0,0,-3.5318,-3.5323,-3.5637,-3.5639,-3.5641,-3.5812,-3.5815,-3.5817,-3.5828,-3.5825,-3.5823,-3.5821,-3.6005,-3.6013,-3.6021,0,0,0,0,0,0,0,0,0,0,0,0,0,-3.5471,-3.5325,-3.5637,-3.5667,-3.5672,-3.5812,-3.5815,-3.5818,-3.5828,-3.5825,-3.5822,-3.5819,-3.6002,-3.6012,-3.6022,-3.6146,0,0,-3.6053,-3.6058,0,0,0,0,0,0,0,0,-3.5463,-3.5483,-3.5661,-3.5665,-3.5671,-3.5795,-3.577,-3.5928,-3.5829,-3.5769,-3.5822,-3.5818,-3.5939,-3.5955,-3.5994,-3.6154,-3.6162,-3.6054,-3.6061,-3.6065,-3.6068,0,0,0,0,0,0,0,-3.5452,-3.5476,-3.5707,-3.5663,-3.5669,-3.5674,-3.5693,-3.58,-3.5869,-3.5774,-3.5775,-3.5796,-3.5942,-3.5984,-3.5999,-3.6165,-3.6054,-3.6063,-3.6069,-3.6073,-3.6438,-3.6441,0,0,0,0,0,0,-3.5434,-3.5467,-3.5701,-3.5712,-3.5557,-3.5683,-3.5703,-3.5758,-3.5868,-3.5882,-3.5798,-3.5795,-3.5968,-3.5987,-3.6005,-3.6157,-3.6065,-3.6074,-3.608,-3.6434,-3.6438,-3.6442,0,0,0,0,0,0,-3.5428,-3.5455,-3.5694,-3.559,-3.562,-3.5691,-3.5753,-3.5763,-3.5806,-3.5886,-3.5899,-3.5828,-3.5967,-3.5991,-3.6111,-3.6164,-3.6079,-3.6088,-3.643,-3.6435,-3.644,-3.6462,0,0,0,0,0,0,-3.5418,-3.5453,-3.5498,-3.5591,-3.5626,-3.5794,-3.5756,-3.5769,-3.5823,-3.5821,-3.5918,-3.5931,-3.5966,-3.6095,-3.6121,-3.6177,-3.6096,-3.6425,-3.6432,-3.6439,-3.6457,-3.6468,-3.6477,0,0,0,0,0,-3.5407,-3.5499,-3.5501,-3.5529,-3.5684,-3.5797,-3.5818,-3.5854,-3.5827,-3.5875,-3.5927,-3.5928,-3.6155,-3.6108,-3.6136,-3.6196,-3.6422,-3.643,-3.6438,-3.6453,-3.6466,-3.6477,0,0,0,0,0,0,-3.5412,-3.5511,-3.5514,-3.5638,-3.5709,-3.5799,-3.586,-3.5867,-3.5948,-3.5943,-3.5987,-3.6009,-3.6128,-3.6175,-3.612,-3.6322,-3.6286,-3.63,-3.6287,-3.63,-3.6309,-3.6295,-3.6105,0,0,0,0,0,-3.5428,-3.5509,-3.5592,-3.5694,-3.5729,-3.5788,-3.5839,-3.5861,-3.5937,-3.5967,-3.6028,-3.6103,-3.6192,-3.6249,-3.6334,-3.6465,-3.6487,-3.652,-3.653,-3.6538,-3.6549,-3.6623,-3.6639,-3.6468,-3.6468,-3.6468,0,0,-3.5461,-3.5525,-3.5574,-3.5696,-3.5754,-3.5839,-3.5813,-3.5904,-3.5969,-3.5982,-3.6098,-3.6146,-3.6233,-3.6359,-3.6417,-3.6401,-3.6602,-3.6548,-3.6553,-3.6561,-3.6633,-3.6649,-3.6663,-3.6474,-3.6473,-3.6472,0,0,-3.5564,-3.562,-3.5711,-3.5769,-3.5856,-3.5896,-3.5917,-3.6007,-3.6038,-3.6155,-3.6167,-3.6246,-3.6397,-3.6459,-3.651,-3.664,-3.6645,-3.6667,-3.6717,-3.6789,-3.6802,-3.6814,-3.6861,-3.6877,-3.6678,-3.6678,-3.6678,0,-3.5594,-3.572,-3.5757,-3.5848,-3.5902,-3.5918,-3.6011,-3.6067,-3.6178,-3.6216,-3.6196,-3.6387,-3.6447,-3.6587,-3.6619,-3.666,-3.6688,-3.6655,-3.6797,-3.681,-3.6822,-3.6866,-3.6884,-3.668,-3.668,-3.668,-3.668,0,-3.5754,-3.5842,-3.5905,-3.601,-3.6072,-3.6164,-3.6217,-3.6276,-3.6294,-3.6336,-3.6457,-3.6529,-3.663,-3.6666,-3.6685,-3.6811,-3.6798,-3.6787,-3.6751,-3.6839,-3.6882,-3.6899,-3.6683,-3.6682,-3.6682,-3.6681,0,0,-3.5862,-3.5988,-3.601,-3.6059,-3.6157,-3.6227,-3.6322,-3.6418,-3.6468,-3.6546,-3.6627,-3.6755,-3.6746,-3.6805,-3.6831,-3.6894,-3.6993,-3.6876,-3.6879,-3.6895,-3.7137,-3.7143,-3.7162,-3.6997,-3.7001,-3.7004,-3.7129,0,-3.5976,-3.614,-3.6177,-3.632,-3.6402,-3.642,-3.6502,-3.6573,-3.6616,-3.6694,-3.6743,-3.6833,-3.6814,-3.685,-3.6913,-3.6967,-3.7042,-3.6959,-3.7074,-3.7078,-3.705,-3.7184,-3.7191,-3.7305,-3.7146,-3.7149,-3.7151,0,-3.6129,-3.6208,-3.6358,-3.6447,-3.6483,-3.6556,-3.6649,-3.6723,-3.6805,-3.6832,-3.6898,-3.6919,-3.702,-3.698,-3.7121,-3.7064,-3.7115,-3.7149,-3.7154,-3.7165,-3.7118,-3.7198,-3.7343,-3.736,-3.7178,-3.7176,-3.7174,0,-3.6192,-3.6337,-3.6446,-3.6487,-3.6593,-3.6644,-3.6691,-3.677,-3.6826,-3.6909,-3.6947,-3.7041,-3.7092,-3.7166,-3.7213,-3.7179,-3.7351,-3.7314,-3.7377,-3.7376,-3.7411,-3.7407,-3.7564,-3.7445,-3.7445,-3.7445,-3.7444,0,-3.6314,-3.6405,-3.6475,-3.6542,-3.6646,-3.6689,-3.6792,-3.6839,-3.691,-3.6988,-3.701,-3.7084,-3.7141,-3.7224,-3.7262,-3.7373,-3.7397,-3.7423,-3.7431,-3.742,-3.7416,-3.7452,-3.7445,-3.7449,-3.7448,-3.7447,-3.7446,0,-3.6401,-3.6452,-3.6571,-3.6662,-3.6688,-3.676,-3.6839,-3.6906,-3.695,-3.7049,-3.7075,-3.7146,-3.7244,-3.7298,-3.7422,-3.7448,-3.7572,-3.7578,-3.7544,-3.7547,-3.7606,-3.76,-3.7791,-3.7818,-3.7681,-3.7683,-3.7684,0,-3.6474,-3.6544,-3.6643,-3.6696,-3.6743,-3.6829,-3.6887,-3.6934,-3.6994,-3.7093,-3.7149,-3.7248,-3.7329,-3.7486,-3.755,-3.7646,-3.7653,-3.7714,-3.7667,-3.7654,-3.7653,-3.7648,-3.7656,-3.7721,-3.7722,-3.7723,-3.7724,0,-3.6599,-3.6621,-3.6702,-3.6793,-3.6861,-3.6935,-3.7009,-3.7052,-3.7112,-3.7178,-3.7278,-3.7341,-3.7468,-3.7566,-3.7667,-3.7719,-3.7732,-3.7738,-3.7758,-3.7746,-3.7723,-3.7736,-3.7564,-3.7733,-3.7732,-3.7731,-3.7731,-3.7731,-3.6681,-3.6745,-3.6824,-3.6914,-3.6975,-3.7044,-3.7111,-3.7164,-3.7247,-3.7351,-3.7376,-3.7481,-3.7564,-3.7701,-3.7756,-3.7841,-3.7829,-3.7858,-3.7865,-3.7871,-3.7872,-3.771,-3.786,-3.7859,-3.7859,-3.7859,-3.7859,0,-3.6806,-3.6858,-3.6941,-3.7043,-3.7115,-3.712,-3.7203,-3.7263,-3.7354,-3.743,-3.751,-3.7626,-3.7722,-3.7794,-3.7894,-3.7948,-3.7957,-3.7973,-3.7969,-3.798,-3.7877,-3.785,-3.7964,-3.7964,-3.7964,-3.7964,-3.7964,-3.7964,-3.688,-3.6987,-3.7019,-3.7159,-3.7211,-3.7313,-3.736,-3.7424,-3.7485,-3.7612,-3.7692,-3.7737,-3.7813,-3.7918,-3.8008,-3.8027,-3.8063,-3.8078,-3.8097,-3.7999,-3.7988,-3.7977,-3.7951,-3.8085,-3.8085,-3.8194,-3.8195,-3.8195]},{"header":{"parameterUnit":"m.s-1","parameterCategory":1,"la1":30.2991,"la2":30.254,"lo1":-89.0895,"lo2":-89.0444,"dy":0.0017,"dx":0.0017,"nx":28,"ny":28,"refTime":"2023-10-24T21:00:00:Z","depth":0,"parameterNumber":3,"parameterNumberName":"V-component_of_WINDS"},"data":[0,0,0,0,0,0,0,0,0,0,0,0,0,0,0,0,0,0,0,0,0,0,0,0,0,0,0,0,0,0,0,0,0,0,0,0,0,0,0,0,0,0,0,0,0,0,0,0,0,0,0,0,0,0,0,0,0,0,1.7899,1.7898,0,1.7763,1.7761,1.776,1.7626,1.7625,1.7623,1.7621,1.7484,1.7482,1.748,0,0,0,0,0,0,0,0,0,0,0,0,0,1.8049,1.8047,1.79,1.7898,1.7896,1.7763,1.7761,1.7759,1.7627,1.7625,1.7622,1.762,1.7485,1.7482,1.748,0,0,0,0,0,0,0,0,0,0,0,0,0,1.7956,1.8046,1.79,1.7814,1.7805,1.7764,1.7761,1.7759,1.7627,1.7625,1.7622,1.7619,1.7485,1.7482,1.7479,1.7513,0,0,1.747,1.7469,0,0,0,0,0,0,0,0,1.7961,1.795,1.7828,1.782,1.7809,1.7709,1.7763,1.7677,1.7628,1.7695,1.7621,1.7618,1.7561,1.7552,1.7532,1.7507,1.7501,1.747,1.7468,1.7467,1.7466,0,0,0,0,0,0,0,1.7968,1.7955,1.7845,1.7827,1.7815,1.7783,1.7767,1.7746,1.7644,1.7689,1.7679,1.7664,1.7555,1.7535,1.7528,1.7499,1.747,1.7467,1.7465,1.7464,1.7496,1.7499,0,0,0,0,0,0,1.7987,1.7962,1.785,1.7841,1.788,1.7783,1.7765,1.7744,1.7644,1.7626,1.7667,1.7658,1.7542,1.7531,1.7522,1.7555,1.7467,1.7464,1.7462,1.7493,1.7497,1.75,0,0,0,0,0,0,1.799,1.7978,1.7855,1.7899,1.7881,1.7783,1.7761,1.7743,1.7722,1.7627,1.7609,1.7664,1.7539,1.7527,1.7516,1.7549,1.7463,1.746,1.749,1.7494,1.7498,1.7622,0,0,0,0,0,0,1.7995,1.798,1.7991,1.79,1.7879,1.7851,1.7763,1.7742,1.7717,1.7705,1.762,1.7604,1.7536,1.7522,1.7514,1.7543,1.7457,1.7487,1.7492,1.7497,1.7614,1.763,1.7643,0,0,0,0,0,1.8001,1.8031,1.7992,1.7979,1.789,1.7853,1.7841,1.7762,1.772,1.773,1.767,1.7606,1.7547,1.7522,1.7511,1.754,1.7484,1.7491,1.7496,1.7608,1.7627,1.7642,0,0,0,0,0,0,1.8128,1.8017,1.7973,1.7974,1.7924,1.783,1.784,1.7784,1.7744,1.7735,1.764,1.7622,1.7623,1.7581,1.7555,1.7569,1.7507,1.7511,1.7596,1.7612,1.7626,1.7636,1.7455,0,0,0,0,0,1.8156,1.8134,1.8039,1.805,1.8027,1.7939,1.792,1.7863,1.7808,1.7786,1.7725,1.7674,1.7644,1.7626,1.7593,1.7609,1.7589,1.7624,1.7638,1.765,1.7654,1.7661,1.7675,1.7519,1.7519,1.7519,0,0,1.8214,1.8151,1.8143,1.8074,1.8028,1.8009,1.7922,1.7904,1.789,1.7783,1.777,1.7724,1.7662,1.7665,1.7663,1.763,1.7694,1.7658,1.7668,1.7665,1.7668,1.7683,1.7697,1.7523,1.7523,1.7522,0,0,1.8308,1.8259,1.8262,1.8219,1.8151,1.8093,1.8095,1.801,1.7976,1.7961,1.7881,1.7863,1.7813,1.7772,1.7745,1.7829,1.7769,1.7821,1.7894,1.7901,1.7914,1.7924,1.7954,1.7966,1.7826,1.7827,1.7827,0,1.8388,1.8355,1.8271,1.8259,1.8232,1.8136,1.814,1.8102,1.8028,1.8012,1.7976,1.7913,1.7864,1.7857,1.7877,1.7859,1.7858,1.7829,1.7919,1.7928,1.7937,1.7964,1.7976,1.7833,1.7832,1.7832,1.7831,0,1.8457,1.8436,1.8447,1.8378,1.8352,1.8349,1.8266,1.825,1.8198,1.8144,1.8131,1.807,1.8024,1.8018,1.7966,1.8005,1.7986,1.7936,1.7872,1.796,1.7984,1.7994,1.7843,1.784,1.7838,1.7837,0,0,1.8624,1.8511,1.8517,1.8485,1.8405,1.8388,1.8381,1.8336,1.8324,1.8278,1.827,1.8232,1.8186,1.8155,1.8099,1.8105,1.8177,1.8054,1.8051,1.8079,1.8216,1.8253,1.8267,1.8138,1.814,1.8141,1.8221,0,1.8705,1.8685,1.8612,1.8615,1.8595,1.8506,1.85,1.8452,1.8402,1.838,1.8325,1.83,1.824,1.8222,1.8225,1.8167,1.8203,1.8161,1.813,1.813,1.8147,1.8279,1.8318,1.8397,1.823,1.8232,1.8233,0,1.8795,1.8755,1.8756,1.8679,1.8668,1.8664,1.8618,1.8597,1.8541,1.8505,1.8473,1.841,1.84,1.8342,1.8328,1.8301,1.8285,1.8256,1.8257,1.8249,1.8186,1.8275,1.842,1.8432,1.8247,1.8246,1.8245,0,1.8917,1.8863,1.8857,1.8833,1.8743,1.8743,1.8705,1.8647,1.8625,1.8586,1.8571,1.8531,1.8509,1.8481,1.841,1.8374,1.8404,1.834,1.8375,1.8377,1.8383,1.8383,1.8526,1.8375,1.8375,1.8375,1.8375,0,1.9014,1.9018,1.8911,1.8907,1.891,1.8827,1.8832,1.8787,1.8737,1.8724,1.8645,1.8635,1.8542,1.8523,1.8468,1.8465,1.8455,1.8427,1.8412,1.8433,1.8437,1.842,1.8412,1.8378,1.8377,1.8377,1.8376,0,1.9149,1.9077,1.9065,1.8982,1.8961,1.8967,1.8896,1.889,1.8838,1.8823,1.8814,1.8732,1.8705,1.8632,1.8586,1.8549,1.8562,1.8534,1.858,1.857,1.8609,1.8606,1.8745,1.8759,1.8601,1.8602,1.8604,0,1.9214,1.9215,1.9133,1.9119,1.9085,1.9063,1.904,1.896,1.894,1.8879,1.8881,1.8847,1.8816,1.8777,1.8714,1.8679,1.865,1.8701,1.8644,1.8666,1.865,1.8651,1.8651,1.8713,1.8715,1.8717,1.8719,0,1.9338,1.9304,1.9274,1.9233,1.9209,1.9173,1.9133,1.9126,1.9036,1.9019,1.8989,1.8965,1.8919,1.8887,1.8843,1.8806,1.8748,1.8738,1.8744,1.8764,1.8791,1.8777,1.8613,1.8734,1.8733,1.8731,1.8731,1.873,1.944,1.9437,1.938,1.935,1.9312,1.9277,1.9268,1.9215,1.9189,1.9145,1.91,1.9076,1.9023,1.8958,1.8925,1.8907,1.8876,1.8885,1.8887,1.889,1.89,1.8795,1.8899,1.8898,1.8898,1.8897,1.8897,0,1.9559,1.9519,1.9493,1.9439,1.9417,1.9365,1.9319,1.9304,1.9284,1.9239,1.9211,1.9179,1.9149,1.9085,1.9049,1.9047,1.9019,1.904,1.9039,1.9031,1.893,1.8928,1.9063,1.9063,1.9063,1.9063,1.9063,1.9063,1.9619,1.9612,1.9572,1.9547,1.9506,1.9482,1.946,1.9428,1.9392,1.936,1.9335,1.9293,1.9241,1.9202,1.9173,1.9155,1.9145,1.9175,1.9148,1.9054,1.9038,1.9023,1.9021,1.9173,1.9174,1.9251,1.9252,1.9253]}]]